Powrót do katalogu

LEMUR 2 DEMBITZ

AktywnyNaukaSSO
NORAD 42842·PAYLOAD·🇺🇸 United States

Wystrzelony Jul 14, 2017 z Baikonur Cosmodrome

Loading…

Następne Przeloty (najbliższe 24 godziny)

TLE

ŚwieżeSource: Space-Track

Epoka: Sep 14, 2026, 11:29 UTC

1 42842U 17042T   26257.47878367  .00013691  00000-0  43373-3 0  9999
2 42842  97.3846  78.7273 0007293  64.3758 295.8237 15.32821629502010

Śledź LEMUR 2 DEMBITZ w czasie rzeczywistym z AllMySat

Download on the App Store